Location: Julian California
(33.0790°N, 116.6010°W)
Time: 01:55:56
(UTC-07:00)

Cosmos 2154 Rocket - Pass Details

Date: 19 May 2017
Orbit: 966 x 996 km, 82.9° (Epoch: 28 June)

Event Time Altitude Azimuth Distance (km) Brightness Sun altitude
Rises 22:36:31 0° 351° (N) 3,712 8.0 -28.9°
Reaches altitude 10° 22:39:03 10° 350° (N) 2,761 7.1 -29.2°
Maximum altitude 22:45:22 75° 266° (W) 1,029 4.0 -29.9°
Enters shadow 22:45:43 73° 237° (WSW) 1,039 4.0 -30.0°
